Hourly Data Report for October 08, 2015

All times are specified in Local Standard Time (LST). Add 1 hour to adjust for Daylight Saving Time where and when it is observed.

POND INLET A
NUNAVUT

72°41'22.000" N
77°58'08.000" W
61.60 m
2403206
71095
YIO

Download Data

Hourly Data (October 2015)
Hourly Data Report for October 8, 2015
Temp Definition
°C
Dew Point Temp Definition
°C
Rel Hum Definition
%
Wind Dir Definition
10's deg

Wind Spd Definition
km/h
Visibility Definition
km
Stn Press Definition
kPa
Hmdx Definition


Wind Chill Definition


Weather Definition


TIME
00:00 Legend Double Dagger -7.7 -9.2 89 16 11 14.5 99.61   -13 Snow
01:00 Legend Double Dagger -7.4 -8.5 92 15 11 4.8 99.60   -12 Snow
02:00 Legend Double Dagger -7.4 -8.5 92 15 9 4.8 99.61   -12 Snow
03:00 Legend Double Dagger -7.4 -8.5 92 15 11 6.4 99.61   -12 Snow
04:00 Legend Double Dagger -7.5 -8.7 91 15 11 12.9 99.61   -13 Snow
05:00 Legend Double Dagger -7.7 -8.9 91 16 13 12.9 99.61   -13 Snow
06:00 Legend Double Dagger -7.3 -8.4 92 16 13 6.4 99.61   -13 Snow
07:00 Legend Double Dagger -7.1 -8.2 92 15 15 3.2 99.61   -13 Snow
08:00 Legend Double Dagger -7.0 -8.1 92 16 13 3.6 99.62   -13 Snow
09:00 Legend Double Dagger -6.9 -7.9 93 15 15 2.0 99.62   -13 Snow
10:00 Legend Double Dagger -6.7 -7.8 92 16 13 3.2 99.60   -12 Snow
11:00 Legend Double Dagger -6.7 -7.9 91 17 15 4.8 99.60   -13 Snow
12:00 Legend Double Dagger -6.5 -7.7 91 17 15 3.6 99.60   -12 Snow
13:00 Legend Double Dagger -6.5 -7.5 93 18 15 6.4 99.60   -12 Snow
14:00 Legend Double Dagger -6.7 -7.8 92 16 15 4.8 99.60   -13 Snow
15:00 Legend Double Dagger -7.0 -8.1 92 17 17 8.1 99.62   -13 Snow
16:00 Legend Double Dagger -6.9 -7.9 93 17 17 4.8 99.62   -13 Snow
17:00 Legend Double Dagger -6.8 -7.6 94 19 15 2.0 99.61   -13 Snow
18:00 Legend Double Dagger -6.8 -7.6 94 19 15 2.0 99.60   -13 Snow
19:00 Legend Double Dagger -6.7 -7.7 93 19 17 2.4 99.59   -13 Snow
20:00 Legend Double Dagger -6.4 -7.2 94 24 15 2.0 99.57   -12 Snow
21:00 Legend Double Dagger -6.9 -8.1 91 17 17 16.1 99.56   -13 Snow
22:00 Legend Double Dagger -7.1 -8.4 91 17 13 16.1 99.55   -13 Snow
23:00 Legend Double Dagger -7.0 -8.1 92 16 17 9.7 99.54   -13 Snow

Notes on Data Quality.

Legend

  • E = Estimated
  • M = Missing
  • NA = Not Available
  • ‡ = Partner data that is not subject to review by the National Climate Archives
Date modified: